User: anonymous   Login
Location: Christchurch
(43.5330°S, 172.6330°E)
Time: 23:33:36
(UTC+13:00)
Language:

Intelsat 806 - Orbit

View from above orbital plane
View from above orbital plane
View from above satellite
View from above satellite

Ground track
Ground track

The orbit data is extracted from the following two-line orbital elements,

1 25239U 98014A   20051.81704810 -.00000180 +00000-0 +00000-0 0  9990
2 25239 001.3004 096.7105 0001351 318.1225 326.8572 00.99078088024098
Epoch (UTC): 20 February 2020 19:36:32
Eccentricity: 0.0001351
inclination: 1.3004°
perigee height: 36118 km
apogee height: 36130 km
right ascension of ascending node: 96.7105°
argument of perigee: 318.1225°
revolutions per day: 0.99078088
mean anomaly at epoch: 326.8572°
orbit number at epoch: 2409

The dashed part of the orbit path shows where the satellite is in the earth's shadow,  

DLR